Location: Unspecified
(0.0000°N, 0.0000°E)
Time: 11:52:29
(UTC+00:00)

Vanguard 2 Rocket - All Passes

Search period start: 28 March 2017 00:00
Search period end: 07 April 2017 00:00
Orbit: 554 x 3328 km, 32.9° (Epoch: 26 March)

Date Brightness Start Highest point End Pass type
(mag) Time Alt. Az. Time Alt. Az. Time Alt. Az.
28 Mar - 05:23:18 10° N 05:31:21 18° NNE 05:41:41 10° ENE visible
28 Mar - 07:34:40 10° NW 07:49:51 52° NE 08:09:20 10° ESE daylight
28 Mar - 09:49:48 10° WNW 10:08:47 75° SW 10:28:02 10° SE daylight
28 Mar - 12:11:19 10° W 12:28:19 33° SSW 12:42:13 10° SSE daylight
28 Mar - 14:44:21 10° SW 14:48:48 12° SSW 14:52:44 10° S daylight
28 Mar - 19:22:47 10° SSW 19:26:02 15° SSE 19:28:43 10° ESE visible
28 Mar - 21:35:18 10° WSW 21:39:36 62° NW 21:43:29 10° NE night (unlit)
29 Mar - 04:27:41 10° NNE 04:29:46 10° NNE 04:32:01 10° NE visible
29 Mar - 06:35:25 10° NNW 06:48:06 38° NE 07:05:32 10° E daylight
29 Mar - 08:48:55 10° NW 09:06:27 87° NE 09:26:50 10° SE daylight
29 Mar - 11:07:30 10° W 11:25:57 44° SW 11:42:32 10° SE daylight
29 Mar - 13:35:44 10° WSW 13:46:27 17° SSW 13:55:11 10° SSE daylight
29 Mar - 18:23:57 10° S 18:25:56 11° SSE 18:27:42 10° SSE visible
29 Mar - 20:35:36 10° SW 20:40:39 57° SSE 20:44:31 10° ENE visible
29 Mar - 22:52:28 10° NW 22:53:31 11° NNW 22:54:36 10° NNW night (unlit)
30 Mar - 05:36:49 10° NNW 05:46:41 26° NE 06:00:20 10° E visible
30 Mar - 07:48:49 10° NW 08:04:22 69° NE 08:24:48 10° ESE daylight
30 Mar - 10:05:04 10° WNW 10:23:29 57° SW 10:42:15 10° SE daylight
30 Mar - 12:29:09 10° WSW 12:43:54 25° SSW 12:56:11 10° SSE daylight
30 Mar - 19:35:53 10° SSW 19:41:21 31° SSE 19:45:15 10° E visible
30 Mar - 21:50:51 10° W 21:54:16 23° NW 21:57:27 10° NNE night (unlit)
31 Mar - 04:39:14 10° N 04:45:30 16° NNE 04:53:30 10° ENE visible
31 Mar - 06:49:22 10° NW 07:02:42 52° NE 07:21:48 10° ESE daylight
31 Mar - 09:03:43 10° WNW 09:21:03 73° SW 09:41:18 10° SE daylight
31 Mar - 11:24:16 10° W 11:41:13 33° SSW 11:56:32 10° SSE daylight
31 Mar - 13:55:14 10° SW 14:03:00 14° SSW 14:09:35 10° SSE daylight
31 Mar - 18:36:00 10° SSW 18:41:35 21° SSE 18:45:35 10° ESE visible
31 Mar - 20:50:19 10° WSW 20:55:20 54° NW 20:59:12 10° NE visible
01 Apr - 05:50:31 10° NNW 06:01:28 36° NE 06:17:41 10° E daylight
01 Apr - 08:03:16 10° NW 08:18:52 90° NE 08:39:40 10° SE daylight
01 Apr - 10:20:59 10° W 10:38:31 43° SSW 10:56:17 10° SE daylight
01 Apr - 12:47:54 10° WSW 13:00:07 19° SSW 13:10:27 10° SSE daylight
01 Apr - 15:19:45 10° SSW 15:22:24 11° S 15:24:49 10° S daylight
01 Apr - 17:35:46 10° SSW 17:41:19 17° SSE 17:45:29 10° SE daylight
01 Apr - 19:49:58 10° SW 19:56:20 71° SSE 20:00:33 10° ENE visible
02 Apr - 04:52:22 10° NNW 05:00:37 24° NE 05:12:20 10° E visible
02 Apr - 07:03:33 10° NW 07:17:07 70° NE 07:37:14 10° ESE daylight
02 Apr - 09:19:02 10° WNW 09:35:53 55° SSW 09:55:29 10° SE daylight
02 Apr - 11:42:01 10° WSW 11:57:05 25° SSW 12:10:39 10° SSE daylight
02 Apr - 14:13:35 10° SSW 14:19:56 13° S 14:25:24 10° SSE daylight
02 Apr - 16:34:52 10° SSW 16:40:31 15° SSE 16:44:55 10° SE daylight
02 Apr - 18:49:34 10° SW 18:56:55 41° SSE 19:01:33 10° E visible
02 Apr - 21:06:02 10° W 21:09:52 22° NW 21:13:03 10° NNE visible
03 Apr - 03:55:39 10° N 03:59:57 13° NE 04:05:12 10° ENE visible
03 Apr - 06:04:27 10° NW 06:15:56 51° NE 06:33:56 10° ESE daylight
03 Apr - 08:18:07 10° WNW 08:33:31 70° SW 08:54:05 10° SE daylight
03 Apr - 10:37:46 10° W 10:54:01 33° SSW 11:10:19 10° SSE daylight
03 Apr - 13:06:52 10° SW 13:16:56 16° SSW 13:25:29 10° SSE daylight
03 Apr - 15:32:55 10° SSW 15:39:05 14° S 15:44:02 10° SE daylight
03 Apr - 17:48:55 10° SSW 17:56:59 29° SSE 18:02:09 10° E daylight
03 Apr - 20:04:50 10° WSW 20:10:57 50° NW 20:15:07 10° NE visible
04 Apr - 05:05:56 10° NNW 05:15:15 35° NE 05:29:43 10° E visible
04 Apr - 07:18:03 10° NW 07:31:37 88° SW 07:52:02 10° SE daylight
04 Apr - 09:35:01 10° W 09:51:07 41° SSW 10:09:31 10° SE daylight
04 Apr - 12:00:32 10° WSW 12:13:34 20° SSW 12:25:14 10° SSE daylight
04 Apr - 14:29:32 10° SSW 14:36:55 14° S 14:42:58 10° SSE daylight
04 Apr - 16:47:53 10° SSW 16:56:30 23° SSE 17:02:19 10° ESE daylight
04 Apr - 19:03:49 10° SW 19:11:52 83° SSE 19:16:40 10° ENE visible
05 Apr - 04:08:11 10° N 04:14:55 21° NE 04:24:25 10° E visible
05 Apr - 06:18:39 10° NW 06:30:17 72° NE 06:49:20 10° ESE daylight
05 Apr - 08:33:30 10° WNW 08:48:31 52° SSW 09:08:12 10° SE daylight
05 Apr - 10:55:25 10° WSW 11:10:08 25° SSW 11:24:36 10° SSE daylight
05 Apr - 13:24:42 10° SW 13:34:02 15° S 13:41:53 10° SSE daylight
05 Apr - 15:46:16 10° SSW 15:55:25 20° SSE 16:01:55 10° ESE daylight
05 Apr - 18:02:44 10° SW 18:12:17 52° SSE 18:17:49 10° ENE daylight
05 Apr - 20:20:38 10° W 20:25:22 23° NW 20:28:55 10° NNE visible
06 Apr - 03:13:19 10° NNE 03:14:42 10° NE 03:16:10 10° NE visible
06 Apr - 05:19:50 10° NW 05:29:35 51° NE 05:45:55 10° ESE visible
06 Apr - 07:32:58 10° WNW 07:46:22 66° SSW 08:06:23 10° SE daylight
06 Apr - 09:51:47 10° W 10:06:52 31° SSW 10:23:36 10° SSE daylight
06 Apr - 12:19:05 10° SW 12:30:36 17° S 12:40:44 10° SSE daylight
06 Apr - 14:43:55 10° SSW 14:53:38 18° S 15:00:59 10° SE daylight
06 Apr - 17:01:25 10° SW 17:12:09 37° SSE 17:18:33 10° E daylight
06 Apr - 19:18:46 10° WSW 19:26:25 49° NW 19:31:08 10° NE visible
